Regional Weather Roundup
Issued by NWS New Orleans/Baton Rouge, LA

Home | Current Version | Previous Version | Text Only | Print | Product List | Glossary Off
Versions: 1 2 3 4 5 6 7 8 9 10 11 12 13 14 15 16 17 18 19 20 21 22 23 24 25 26 27 28 29 30 31 32 33 34 35 36 37 38 39 40 41 42 43 44 45 46 47 48 49 50

180
ASUS44 KLIX 060401
RWRLIX
NEW ORLEANS REGIONAL WEATHER ROUNDUP
NATIONAL WEATHER SERVICE NEW ORLEANS LA
1000 PM CST THU MAR 05 2015

NOTE: "FAIR" INDICATES FEW OR NO CLOUDS BELOW 12,000 FEET WITH NO
      SIGNIFICANT WEATHER AND/OR OBSTRUCTIONS TO VISIBILITY.
      SKY/WX - SKY CONDITION AND SIGNIFICANT WEATHER.
      TMP - AIR TEMPERATURE.     DP    - DEWPOINT TEMPERATURE.
      RH  - RELATIVE HUMIDITY.   PRES  - PRESSURE.
      HI  - HEAT INDEX.          WCI   - WIND CHILL INDEX.

*  THESE STATIONS ARE NOT NWS OR FAA STATIONS AND ARE NOT UNDER
   NWS QUALITY CONTROL.

LAZ038-040-048-061>063-065>067-069-060500-
SOUTHEAST LOUISIANA

CITY           SKY/WX    TMP DP  RH WIND       PRES   REMARKS
N.O. AUDUBON   NOT AVBL
N.O. INTL ARPT PTCLDY    36  23  59 N24G31    30.45R WCI  24
N.O. LAKEFRONT PTCLDY    38  26  62 N30G37    30.46S WCI  26
SLIDELL        PTCLDY    34  22  61 N21G29    30.45R WCI  22
BATON ROUGE    CLEAR     32  19  58 N8        30.51R WCI  25
BOOTHVILLE     CLOUDY    43  34  70 N16G26    30.39R
BELLE CHASSE   MOCLDY    37  23  56 N17G28    30.43R WCI  27
BOGALUSA*        N/A     34  24  68 N10G20    30.49R WCI  26
GALLIANO*      NOT AVBL
NEW ROADS*     NOT AVBL
GONZALES*      NOT AVBL
HAMMOND*       NOT AVBL
HOUMA*         MOCLDY    35  24  63 N21G26    30.45R WCI  24
PORT FOURCHON* CLOUDY    41  30  65 N23G33    30.43F

$$

MSZ070-080>082-060500-
SOUTHERN MISSISSIPPI

CITY           SKY/WX    TMP DP  RH WIND       PRES   REMARKS
MCCOMB         PTCLDY    28  18  66 N14       30.50R WCI  17
GULFPORT       PTCLDY    35  23  61 N21G31    30.42R WCI  24
BILOXI         PTCLDY    36  26  68 N16G24    30.42R WCI  26
PASCAGOULA     MOCLDY    35  26  69 N16G26    30.41R WCI  25

$$

COASTAL OBSERVATIONS
LAKE AND NEARSHORE STATIONS

STATION/POSITION TIME  TEMP    WIND        PRES    WAVE
                       AIR SEA DIR/SP/G            HT/PER
                 (UTC) (F)     (DEG/KT/KT) (MB)    (FT/S)
PASCAGOULA       0300   37     360/ 16/ 22 1029.2
WAVELAND YACHT   0300   36 49   10/ 20/ 26 1030.0
GRAND ISLE       0300   41 62  360/ 23/ 29 1029.9
SOUTHWEST PASS   0300   45 44   20/ 26/ 29 1028.7
NEW CANAL        0300   38      10/ 22/ 26 1031.3
SHELL BEACH      0300   39 57  360/ 23/ 33 1030.1

OFFSHORE STATIONS

STATION/POSITION TIME  TEMP    WIND        PRES    WAVE
                       AIR SEA DIR/SP/G            HT/PER
                 (UTC) (F)     (DEG/KT/KT) (MB)    (FT/S)
64 S DAUPHIN ISL 0301   48 69   20/ 29/ 33 1027.2    8/ 7

$$




USA.gov is the U.S. government's official web portal to all federal, state and local government web resources and services.